This is the latest recevied weather packets stored in our database for station/object WX5HOT. If no packets are shown the sender has not sent any weather packets the latest 10 day(s).
| Time | Temp. | Humidity | Pressure | Rain* | Wind** | Luminosity | Snow |
|---|---|---|---|---|---|---|---|
| 1777839959 | 23.33° C | 44% | 1068 hPa | 0 mm | - | 104 W/m² | - |
| 1777839657 | 22.78° C | 44% | 1067.9 hPa | 0 mm | - | 102 W/m² | - |
| 1777839355 | 22.78° C | 45% | 1068.4 hPa | 0 mm | - | 783 W/m² | - |
| 1777839052 | 22.78° C | 44% | 1068.3 hPa | 0 mm | - | 794 W/m² | - |
| 1777838748 | 22.22° C | 45% | 1068.4 hPa | 0 mm | - | 770 W/m² | - |
| 1777838444 | 22.78° C | 44% | 1068.5 hPa | 0 mm | - | 821 W/m² | - |
| 1777838142 | 22.22° C | 45% | 1068.6 hPa | 0 mm | - | 834 W/m² | - |
| 1777837838 | 22.78° C | 44% | 1068.6 hPa | 0 mm | - | 844 W/m² | - |
| 1777837536 | 22.22° C | 46% | 1068.6 hPa | 0 mm | - | 852 W/m² | - |
| 1777837235 | 22.22° C | 45% | 1068.9 hPa | 0 mm | - | 871 W/m² | - |
| 1777836933 | 22.22° C | 43% | 1068.7 hPa | 0 mm | - | 871 W/m² | - |
| 1777836627 | 22.22° C | 43% | 1068.7 hPa | 0 mm | - | 876 W/m² | - |
| 1777836324 | 22.22° C | 43% | 1068.9 hPa | 0 mm | - | 886 W/m² | - |
| 1777836020 | 22.22° C | 43% | 1069.1 hPa | 0 mm | - | 895 W/m² | - |
| 1777835717 | 22.22° C | 44% | 1069.1 hPa | 0 mm | - | 897 W/m² | - |
| 1777835414 | 21.67° C | 44% | 1069 hPa | 0 mm | - | 908 W/m² | - |
| 1777835111 | 21.67° C | 43% | 1069.3 hPa | 0 mm | - | 911 W/m² | - |
| 1777834808 | 21.67° C | 45% | 1069.4 hPa | 0 mm | - | 921 W/m² | - |
| 1777834504 | 21.67° C | 46% | 1069.3 hPa | 0 mm | - | 599 W/m² | - |
| 1777834204 | 21.11° C | 45% | 1069.5 hPa | 0 mm | - | 923 W/m² | - |
| 1777833900 | 21.11° C | 45% | 1069.5 hPa | 0 mm | - | 764 W/m² | - |
| 1777833596 | 21.11° C | 44% | 1069.7 hPa | 0 mm | - | 881 W/m² | - |
| 1777833293 | 21.11° C | 44% | 1069.4 hPa | 0 mm | - | 812 W/m² | - |
| 1777832990 | 21.11° C | 43% | 1069.7 hPa | 0 mm | - | 536 W/m² | - |
| 1777832689 | 21.67° C | 44% | 1069.8 hPa | 0 mm | - | 90 W/m² | - |
* Rain latest hour (hover to see other rain measurements)
** Current wind speed in m/s (hover to see current wind gust speed)